Location: ??????
(33.3472°N, 35.4764°E)
Time: 08:46:07
(UTC+00:00)

Cosmos 2285 Rocket - Pass Details

Date: 21 August 2019
Orbit: 970 x 999 km, 74.0° (Epoch: 23 September)

Event Time Altitude Azimuth Distance (km) Brightness Sun altitude
Rises 02:16:39 0° 337° (NNW) 3,702 7.0 -10.3°
Reaches altitude 10° 02:19:14 10° 333° (NNW) 2,754 6.3 -9.8°
Maximum altitude 02:25:27 55° 258° (WSW) 1,176 4.1 -8.6°
Drops below altitude 10° 02:31:40 10° 182° (S) 2,755 6.2 -7.4°
Sets 02:34:16 0° 178° (S) 3,702 6.9 -6.9°
